This demonstration page uses our WeatherBlox Daily Observations layout. Learn more.

Left ArrowRight Arrow

39.92423, -83.80882

Hourly Observations for January 13, 2021

Temp ( °F °C ) Dew Point ( °F °C ) Humidity (%) Winds ( mph kmh ) Pressure ( in mb ) Visibility ( mi km ) Precip ( " mm )
12:56 am 00:56 Clear 27 -2.8 24 -4.4 89 89 SSW 9 15 30.13 1020 9 14.48406 0 0
1:56 am 01:56 Clear 26 -3.3 24 -4.4 92 92 SSW 8 13 30.12 1020 8 12.87472 0 0
2:56 am 02:56 Clear 27 -2.8 24 -4.4 89 89 SSW 12 19 30.11 1020 8 12.87472 0 0
3:56 am 03:56 Clear 26 -3.3 25 -3.9 96 96 SSW 8 13 30.1 1019 8 12.87472 0 0
4:56 am 04:56 Clear 26 -3.3 25 -3.9 96 96 SW 8 13 30.09 1019 7 11.26538 0 0
5:56 am 05:56 Clear 26 -3.3 25 -3.9 96 96 SW 9 15 30.09 1019 7 11.26538 0 0
6:56 am 06:56 Clear with Mist and Fog 26 -3.3 25 -3.9 96 96 SW 12 19 30.09 1019 6 9.65604 0 0
7:56 am 07:56 Sunny with Mist and Fog 26 -3.3 26 -3.3 100 100 SW 14 22 30.07 1018 4 6.43736 0 0
8:56 am 08:56 Sunny with Mist and Fog 28 -2.2 27 -2.8 96 96 SW 12 19 30.08 1019 4 6.43736 0 0
9:56 am 09:56 Sunny with Mist and Fog 31 -0.6 29 -1.7 92 92 SSW 13 20 30.05 1018 6 9.65604 0 0
10:56 am 10:56 Sunny 35 1.7 30 -1.1 82 82 SW 10 17 30.04 1017 8 12.87472 0.01 0.254
11:56 am 11:56 Sunny 37 2.8 31 -0.6 79 79 SSW 9 15 30 1016 9 14.48406 0 0
12:56 pm 12:56 Sunny 41 5 32 0 70 70 SSW 9 15 29.95 1014 10 16.0934 0 0
1:56 pm 13:56 Sunny 43 6.1 31 -0.6 63 63 SW 13 20 29.93 1014 10 16.0934 0 0
2:56 pm 14:56 Sunny 45 7.2 31 -0.6 58 58 SW 16 26 29.9 1012 10 16.0934 0 0
3:56 pm 15:56 Sunny 44 6.7 30 -1.1 58 58 SW 16 26 29.89 1012 10 16.0934 0 0
4:56 pm 16:56 Sunny 43 6.1 30 -1.1 60 60 SSW 12 19 29.88 1012 10 16.0934 0 0
5:56 pm 17:56 Clear 41 5 30 -1.1 65 65 SSW 8 13 29.88 1012 10 16.0934 0 0
6:56 pm 18:56 Clear 40 4.4 30 -1.1 68 68 SSW 9 15 29.88 1012 10 16.0934 0 0
7:56 pm 19:56 Partly Cloudy 39 3.9 29 -1.7 67 67 SW 10 17 29.88 1012 10 16.0934 0 0
8:56 pm 20:56 Mostly Clear 39 3.9 30 -1.1 70 70 SSW 10 17 29.86 1011 10 16.0934 0 0
9:56 pm 21:56 Mostly Cloudy 39 3.9 30 -1.1 70 70 SSW 8 13 29.85 1011 10 16.0934 0 0
10:56 pm 22:56 Mostly Cloudy 39 3.9 30 -1.1 70 70 SW 13 20 29.85 1011 10 16.0934 0 0
11:56 pm 23:56 Mostly Clear 38 3.3 30 -1.1 73 73 SW 10 17 29.84 1010 10 16.0934 0 0

Powered by AerisWeather